Dauntless Aviation
Airports South America Uruguay

Hospital Policial

Montevideo, URUGUAY

Airport Info
Suggest Updated Information for this Airport

Location

Latitude / Longitude: 34°52'4"S / 56°9'6"W
  34°52.068'S / 56°9.114'W
  -34.8678 / -56.1519
Satellite photo at:
Airport distance calculator
From:
Weather Reports

METAR

SUMU
8.1nm NE
SUMU 252200Z 11017KT 4000 RABR BKN004 OVC070 11/11 Q1012 NOSIG

TAF

SUAA
7.8nm NW
SUAA 251705Z 2518/2618 10015KT 5000 RA OVC012 OVC050 TX13/2518Z TN10/2610Z TEMPO 2518/2606 09025G35KT 2500 TSSHRA BKN010 FEW040CB OVC060 BECMG 2607/2609 31010KT BECMG 2612/2614 19025G40KT
SUMU
8.1nm NE
SUMU 251705Z 2518/2618 10015KT 5000 RA OVC012 OVC050 TX13/2518Z TN10/2610Z TEMPO 2518/2606 09025G35KT 2500 TSSHRA BKN010 FEW040CB OVC060 BECMG 2607/2609 31010KT BECMG 2612/2614 19025G40KT
Safelog

 

Dauntless Aviation

© 2007-2016 Dauntless Aviation, all rights reserved
Information provided via PilotNav comes from a variety of official and unofficial data sources. As errors are possible, do not use PilotNav for primary flight planning purposes. Verify any information that you receive via PilotNav with current and canonical charts and other official documents. The material in this database is subject to database copyrights held by Dauntless Aviation and may not be copied without the express permission of Dauntless Aviation - licenses for use of part of all of this data are available for purchase; enquire via the Dauntless Aviation helpdesk. A number of mechanisms and markers exist in the database to protect against and identify infringement / copyright. Automated queries against this website are stictly prohibited, and all activity is logged and analyzed.